Location: Zagreb
(45.8000°N, 16.0000°E)
Time: 15:51:40
(UTC+02:00)

Transit 2A Rocket - Pass Details

Date: 12 August 2022
Orbit: 593 x 907 km, 66.7° (Epoch: 25 September)

Event Time Altitude Azimuth Distance (km) Brightness Sun altitude
Rises 18:58:41 0° 201° (SSW) 3,016 8.2 11.0°
Reaches altitude 10° 19:01:05 10° 198° (SSW) 2,062 7.4 10.6°
Maximum altitude 19:05:37 60° 119° (ESE) 716 4.8 9.8°
Drops below altitude 10° 19:09:56 10° 40° (NE) 1,957 6.9 9.0°
Sets 19:12:09 0° 36° (NE) 2,849 7.7 8.7°
